Location: Aydie
(43.5695°N, 0.1043°W)
Time: 05:39:19
(UTC+00:00)

Cosmos 1300 Rocket - Pass Details

Date: 17 November 2025
Orbit: 594 x 620 km, 82.5° (Epoch: 04 December)

Event Time Altitude Azimuth Distance (km) Brightness Sun altitude
Rises 17:11:17 0° 193° (SSW) 2,879 7.5 -7.2°
Reaches altitude 10° 17:13:31 10° 195° (SSW) 1,976 6.7 -7.5°
Maximum altitude 17:17:52 69° 279° (W) 660 3.9 -8.3°
Drops below altitude 10° 17:22:15 10° 4° (N) 1,979 5.9 -9.0°
Sets 17:24:29 0° 7° (N) 2,884 6.7 -9.4°
